| time (UTC) | temp C | wind direction | speed KPH | gust KPH | rain 1hr cm | rain 24hr cm | rain mn cm | humidity % | barometer mb |
| 20260506211542 | 8 | 233 | 11.3 | 25.7 | 0.00 | 0.00 | 0.00 | 85 | 1016.6 |
| 20260506210042 | 10 | 247 | 12.9 | 29.0 | 0.00 | 0.00 | 0.00 | 83 | 1016.2 |
| 20260506204551 | 10 | 203 | 16.1 | 29.0 | 0.00 | 0.00 | 0.00 | 84 | 1016.5 |
| 20260506203040 | 10 | 249 | 14.5 | 24.1 | 0.00 | 0.00 | 0.00 | 83 | 1016.8 |
| 20260506201540 | 11 | 186 | 14.5 | 29.0 | 0.00 | 0.00 | 0.00 | 82 | 1016.8 |
| 20260506200044 | 11 | 235 | 20.9 | 30.6 | 0.00 | 0.00 | 0.00 | 81 | 1016.9 |
| 20260506194547 | 11 | 270 | 17.7 | 35.4 | 0.00 | 0.00 | 0.00 | 81 | 1017.1 |
| 20260506193038 | 11 | 240 | 17.7 | 33.8 | 0.00 | 0.00 | 0.00 | 82 | 1017.1 |
| 20260506191537 | 11 | 224 | 22.5 | 33.8 | 0.00 | 0.00 | 0.00 | 82 | 1017.4 |
| 20260506190038 | 11 | 263 | 14.5 | 29.0 | 0.00 | 0.00 | 0.00 | 83 | 1017.4 |
| 20260506184536 | 11 | 217 | 16.1 | 35.4 | 0.00 | 0.00 | 0.00 | 83 | 1017.5 |
| 20260506183040 | 11 | 264 | 20.9 | 32.2 | 0.00 | 0.00 | 0.00 | 83 | 1017.8 |
| 20260506181536 | 11 | 219 | 16.1 | 32.2 | 0.00 | 0.00 | 0.00 | 82 | 1018.0 |
| 20260506180034 | 11 | 228 | 25.7 | 37.0 | 0.00 | 0.00 | 0.00 | 82 | 1018.1 |
| 20260506174533 | 11 | 246 | 20.9 | 37.0 | 0.00 | 0.00 | 0.00 | 83 | 1018.2 |
| 20260506173032 | 11 | 230 | 22.5 | 32.2 | 0.00 | 0.00 | 0.00 | 83 | 1018.0 |
| 20260506171518 | 11 | 236 | 22.5 | 35.4 | 0.00 | 0.00 | 0.00 | 83 | 1018.1 |
| 20260506170009 | 11 | 223 | 22.5 | 37.0 | 0.00 | 0.00 | 0.00 | 84 | 1017.9 |
| 20260506164508 | 11 | 238 | 22.5 | 40.2 | 0.00 | 0.00 | 0.00 | 85 | 1018.1 |
| 20260506163007 | 11 | 237 | 20.9 | 37.0 | 0.00 | 0.00 | 0.00 | 84 | 1018.0 |
| 20260506161506 | 11 | 237 | 25.7 | 41.8 | 0.00 | 0.00 | 0.00 | 85 | 1018.2 |
| 20260506160003 | 11 | 245 | 20.9 | 38.6 | 0.00 | 0.00 | 0.00 | 85 | 1018.2 |
| 20260506154601 | 11 | 220 | 20.9 | 38.6 | 0.00 | 0.00 | 0.00 | 86 | 1018.4 |
| 20260506153100 | 11 | 234 | 22.5 | 41.8 | 0.00 | 0.00 | 0.00 | 86 | 1018.4 |
| 20260506151609 | 10 | 226 | 20.9 | 35.4 | 0.00 | 0.00 | 0.00 | 87 | 1018.7 |
| 20260506144655 | 11 | 264 | 17.7 | 37.0 | 0.00 | 0.00 | 0.00 | 88 | 1018.6 |
| 20260506143057 | 10 | 239 | 17.7 | 33.8 | 0.00 | 0.00 | 0.00 | 89 | 1018.7 |
| 20260506141553 | 10 | 259 | 22.5 | 32.2 | 0.00 | 0.00 | 0.00 | 89 | 1018.7 |
| 20260506140103 | 10 | 204 | 19.3 | 33.8 | 0.00 | 0.00 | 0.00 | 88 | 1018.7 |
| 20260506134551 | 10 | 238 | 20.9 | 33.8 | 0.00 | 0.00 | 0.00 | 89 | 1018.6 |
| 20260506133050 | 9 | 235 | 17.7 | 30.6 | 0.00 | 0.00 | 0.00 | 90 | 1018.4 |
| 20260506131547 | 10 | 248 | 14.5 | 27.4 | 0.00 | 0.00 | 0.00 | 89 | 1018.3 |
| 20260506130058 | 10 | 214 | 20.9 | 33.8 | 0.00 | 0.00 | 0.00 | 89 | 1018.3 |
| 20260506124545 | 11 | 266 | 17.7 | 35.4 | 0.00 | 0.00 | 0.00 | 88 | 1018.3 |
| 20260506123042 | 11 | 255 | 17.7 | 32.2 | 0.00 | 0.00 | 0.00 | 88 | 1018.2 |
| 20260506121540 | 11 | 226 | 20.9 | 33.8 | 0.00 | 0.00 | 0.00 | 89 | 1018.3 |
| 20260506120038 | 10 | 176 | 16.1 | 30.6 | 0.00 | 0.00 | 0.00 | 90 | 1018.1 |
| 20260506114540 | 10 | 226 | 20.9 | 32.2 | 0.00 | 0.00 | 0.00 | 90 | 1018.0 |
| 20260506113030 | 9 | 234 | 16.1 | 37.0 | 0.00 | 0.00 | 0.00 | 91 | 1017.9 |
| 20260506111526 | 9 | 237 | 16.1 | 38.6 | 0.00 | 0.00 | 0.00 | 91 | 1018.0 |
| 20260506110024 | 9 | 249 | 17.7 | 33.8 | 0.00 | 0.00 | 0.00 | 92 | 1017.9 |
| 20260506104520 | 8 | 254 | 16.1 | 38.6 | 0.00 | 0.00 | 0.00 | 93 | 1017.8 |
| 20260506103018 | 8 | 269 | 20.9 | 32.2 | 0.00 | 0.00 | 0.00 | 93 | 1017.7 |
| 20260506101527 | 8 | 232 | 16.1 | 30.6 | 0.00 | 0.00 | 0.00 | 94 | 1017.7 |
| 20260506100013 | 7 | 286 | 19.3 | 38.6 | 0.00 | 0.00 | 0.00 | 94 | 1017.6 |
| 20260506094516 | 7 | 255 | 19.3 | 33.8 | 0.00 | 0.00 | 0.00 | 94 | 1017.4 |
| 20260506093010 | 7 | 235 | 16.1 | 29.0 | 0.00 | 0.00 | 0.00 | 94 | 1017.2 |
| 20260506091508 | 7 | 229 | 17.7 | 32.2 | 0.00 | 0.00 | 0.00 | 94 | 1017.1 |
| 20260506090009 | 7 | 249 | 17.7 | 35.4 | 0.00 | 0.00 | 0.00 | 94 | 1016.9 |
| 20260506084515 | 7 | 286 | 16.1 | 38.6 | 0.00 | 0.00 | 0.00 | 94 | 1016.7 |
| 20260506083002 | 7 | 257 | 19.3 | 33.8 | 0.00 | 0.00 | 0.00 | 94 | 1016.7 |
| 20260506081502 | 7 | 248 | 16.1 | 30.6 | 0.00 | 0.00 | 0.00 | 94 | 1016.6 |
| 20260506073104 | 7 | 257 | 17.7 | 32.2 | 0.00 | 0.00 | 0.00 | 94 | 1016.7 |
| 20260506071609 | 7 | 246 | 14.5 | 29.0 | 0.00 | 0.00 | 0.00 | 94 | 1016.8 |
| 20260506061548 | 7 | 244 | 16.1 | 30.6 | 0.00 | 0.00 | 0.00 | 94 | 1016.9 |
| 20260506044540 | 7 | 222 | 12.9 | 30.6 | 0.00 | 0.00 | 0.00 | 94 | 1016.9 |
| 20260506043039 | 7 | 245 | 12.9 | 24.1 | 0.00 | 0.00 | 0.00 | 94 | 1016.8 |
| 20260506041551 | 7 | 248 | 14.5 | 24.1 | 0.00 | 0.00 | 0.00 | 94 | 1016.9 |
| 20260506040038 | 7 | 259 | 16.1 | 32.2 | 0.00 | 0.00 | 0.00 | 94 | 1016.8 |
| 20260506034534 | 7 | 267 | 14.5 | 29.0 | 0.00 | 0.00 | 0.00 | 93 | 1016.9 |
| 20260506033033 | 7 | 229 | 11.3 | 29.0 | 0.00 | 0.00 | 0.00 | 93 | 1016.8 |
| 20260506031530 | 7 | 243 | 12.9 | 27.4 | 0.00 | 0.00 | 0.00 | 94 | 1016.6 |
| 20260506030031 | 7 | 266 | 12.9 | 25.7 | 0.00 | 0.00 | 0.00 | 94 | 1016.5 |
| 20260506024526 | 7 | 278 | 12.9 | 25.7 | 0.00 | 0.00 | 0.00 | 94 | 1016.4 |
| 20260506023025 | 7 | 259 | 11.3 | 25.7 | 0.00 | 0.00 | 0.00 | 94 | 1016.3 |
| 20260506021525 | 7 | 257 | 12.9 | 25.7 | 0.00 | 0.00 | 0.00 | 94 | 1016.4 |
| 20260506020025 | 7 | 247 | 11.3 | 24.1 | 0.00 | 0.00 | 0.00 | 94 | 1016.4 |
| 20260506014533 | 7 | 238 | 16.1 | 29.0 | 0.00 | 0.00 | 0.00 | 94 | 1016.5 |
| 20260506013028 | 7 | 245 | 16.1 | 30.6 | 0.00 | 0.00 | 0.00 | 94 | 1016.5 |
| 20260506011522 | 7 | 262 | 16.1 | 33.8 | 0.00 | 0.00 | 0.00 | 93 | 1016.4 |
| 20260506010025 | 7 | 268 | 14.5 | 33.8 | 0.00 | 0.00 | 0.00 | 93 | 1016.1 |
| 20260506004528 | 7 | 259 | 14.5 | 29.0 | 0.00 | 0.00 | 0.00 | 94 | 1015.8 |
| 20260506003015 | 7 | 260 | 17.7 | 32.2 | 0.00 | 0.00 | 0.00 | 94 | 1015.4 |
| 20260506001515 | 7 | 243 | 17.7 | 29.0 | 0.00 | 0.00 | 0.00 | 94 | 1015.3 |
| 20260506000018 | 7 | 239 | 16.1 | 27.4 | 0.00 | 0.00 | 0.00 | 94 | 1015.1 |
| 20260505234516 | 7 | 245 | 16.1 | 29.0 | 0.00 | 0.00 | 0.00 | 93 | 1015.0 |
| 20260505233009 | 7 | 284 | 17.7 | 32.2 | 0.00 | 0.00 | 0.00 | 93 | 1014.7 |
| 20260505231509 | 8 | 247 | 19.3 | 32.2 | 0.00 | 0.00 | 0.00 | 93 | 1014.7 |
| 20260505230014 | 8 | 255 | 17.7 | 27.4 | 0.00 | 0.00 | 0.00 | 93 | 1014.4 |
| 20260505224508 | 8 | 249 | 19.3 | 35.4 | 0.00 | 0.00 | 0.00 | 93 | 1014.3 |
| 20260505223009 | 8 | 259 | 20.9 | 35.4 | 0.00 | 0.00 | 0.00 | 93 | 1014.4 |
| 20260505221507 | 8 | 281 | 16.1 | 32.2 | 0.00 | 0.00 | 0.00 | 93 | 1014.1 |
| 20260505220017 | 8 | 243 | 19.3 | 32.2 | 0.00 | 0.00 | 0.00 | 93 | 1013.9 |
| 20260505214512 | 8 | 249 | 19.3 | 38.6 | 0.00 | 0.00 | 0.00 | 92 | 1013.7 |
| 20260505213004 | 8 | 245 | 16.1 | 35.4 | 0.00 | 0.00 | 0.00 | 92 | 1013.7 |